This is the latest recevied weather packets stored in our database for station/object KI4BIY. If no packets are shown the sender has not sent any weather packets the latest 10 day(s).
| Time | Temp. | Humidity | Pressure | Rain* | Wind** | Luminosity | Snow |
|---|---|---|---|---|---|---|---|
| 1778274336 | 23.33° C | 49% | 1010.4 hPa | 0 mm | - | 30 W/m² | - |
| 1778274034 | 23.33° C | 49% | 1010.5 hPa | 0 mm | - | 30 W/m² | - |
| 1778273730 | 23.89° C | 51% | 1010.4 hPa | 0 mm | - | 32 W/m² | - |
| 1778273426 | 23.33° C | 49% | 1010.4 hPa | 0 mm | - | 31 W/m² | - |
| 1778273124 | 23.89° C | 47% | 1010.3 hPa | 0 mm | - | 32 W/m² | - |
| 1778272819 | 23.89° C | 51% | 1010.5 hPa | 0 mm | - | 38 W/m² | - |
| 1778272515 | 23.89° C | 47% | 1010.6 hPa | 0 mm | - | 37 W/m² | - |
| 1778272211 | 23.89° C | 46% | 1010.7 hPa | 0 mm | - | 137 W/m² | - |
| 1778271909 | 23.89° C | 45% | 1010.7 hPa | 0 mm | - | 52 W/m² | - |
| 1778271605 | 23.89° C | 45% | 1010.9 hPa | 0 mm | - | 55 W/m² | - |
| 1778271302 | 23.89° C | 47% | 1010.9 hPa | 0 mm | - | 344 W/m² | - |
| 1778270999 | 24.44° C | 46% | 1010.9 hPa | 0 mm | - | 264 W/m² | - |
| 1778270696 | 24.44° C | 44% | 1010.7 hPa | 0 mm | - | 610 W/m² | - |
| 1778270390 | 24.44° C | 50% | 1011 hPa | 0 mm | - | 655 W/m² | - |
| 1778270088 | 23.89° C | 46% | 1010.9 hPa | 0 mm | - | 651 W/m² | - |
| 1778269784 | 24.44° C | 46% | 1011 hPa | 0 mm | - | 626 W/m² | - |
| 1778269482 | 23.89° C | 46% | 1010.9 hPa | 0 mm | - | 664 W/m² | - |
| 1778269178 | 23.89° C | 49% | 1011.2 hPa | 0 mm | - | 699 W/m² | - |
| 1778268875 | 24.44° C | 47% | 1011.3 hPa | 0 mm | - | 656 W/m² | - |
| 1778268572 | 24.44° C | 46% | 1011.3 hPa | 0 mm | - | 675 W/m² | - |
| 1778268269 | 24.44° C | 44% | 1011.4 hPa | 0 mm | - | 655 W/m² | - |
| 1778267965 | 24.44° C | 49% | 1011.5 hPa | 0 mm | - | 625 W/m² | - |
| 1778267663 | 23.89° C | 45% | 1011.7 hPa | 0 mm | - | 605 W/m² | - |
| 1778267359 | 24.44° C | 46% | 1011.5 hPa | 0 mm | - | 654 W/m² | - |
| 1778267057 | 24.44° C | 48% | 1011.8 hPa | 0 mm | - | 604 W/m² | - |
* Rain latest hour (hover to see other rain measurements)
** Current wind speed in m/s (hover to see current wind gust speed)